Du Bois, PA

5:26 PM EST on December 10, 2019 (GMT -0500)
Du Bois-Jefferson County

Weather History for KDUJ - November, 2019

Change the Weather History Date:

Thursday, November 14, 2019

  Actual Average Record
Temperature  
Mean Temperature 30 °F 40 °F  
Max Temperature 37 °F 48 °F 68 °F (1994)
Min Temperature 22 °F 32 °F 8 °F (1986)
Degree Days  
Heating Degree Days 36 25  
Month to date heating degree days 445 320  
Since 1 July heating degree days 952 1063  
Cooling Degree Days 0 0  
Month to date cooling degree days 0 0  
Year to date cooling degree days 430 362  
Moisture  
Dew Point 17 °F    
Average Humidity 59    
Maximum Humidity 65    
Minimum Humidity 50    
Precipitation  
Precipitation 0.00 in 0.13 in 1.05 in (2011)
Month to date precipitation 0.61 1.65  
Year to date precipitation 42.93 38.04  
Sea Level Pressure  
Sea Level Pressure 30.24 in    
Wind  
Wind Speed 7 mph ()    
Max Wind Speed 17 mph    
Max Gust Speed 23 mph    
Visibility 10.0 miles    
Events      
T = Trace of Precipitation, MM = Missing Value Source: Averaged Metar Reports

Daily Weather History Graph

Daily Weather History Graph

Search for Another Location

Airport or City:

Astronomy

Nov. 14, 2019 Rise Set
Actual Time 7:02 AM EST 4:57 PM EST
Civil Twilight 6:32 AM EST 5:27 PM EST
Nautical Twilight 5:59 AM EST 6:00 PM EST
Astronomical Twilight 5:26 AM EST 6:32 PM EST
Moon 6:41 PM EST (11/14) 8:56 AM EST (11/14)
Length of Visible Light 10h 54m
Length of Day
9h 55m
Waning Gibbous, 95% of the Moon is Illuminated
Nov 14
Waning Gibbous
Nov 19
Last Quarter
Nov 26
New
Dec 4
First Quarter
Dec 12
Full

Hourly Weather History & Observations

Time (EST) Temp. Windchill Dew Point Humidity Pressure Visibility Wind Dir Wind Speed Gust Speed Precip Events Conditions
12:53 AM 23.0 °F 14.7 °F 12.0 °F 63% 30.25 in 10.0 mi SE 6.9 mph - N/A   Partly Cloudy
1:53 AM 24.1 °F 14.4 °F 12.0 °F 60% 30.23 in 10.0 mi SE 9.2 mph - N/A   Mostly Cloudy
2:53 AM 24.1 °F 14.4 °F 12.9 °F 62% 30.24 in 10.0 mi SE 9.2 mph - N/A   Scattered Clouds
3:53 AM 24.1 °F 17.0 °F 12.9 °F 62% 30.22 in 10.0 mi SSE 5.8 mph - N/A   Mostly Cloudy
4:53 AM 24.1 °F 17.0 °F 12.9 °F 62% 30.23 in 10.0 mi Variable 5.8 mph - N/A   Overcast
5:53 AM 25.0 °F 19.3 °F 12.9 °F 60% 30.24 in 10.0 mi Variable 4.6 mph - N/A   Overcast
6:53 AM 25.0 °F 18.1 °F 12.9 °F 60% 30.24 in 10.0 mi South 5.8 mph - N/A   Overcast
7:53 AM 27.0 °F 21.6 °F 14.0 °F 58% 30.25 in 10.0 mi Variable 4.6 mph - N/A   Overcast
8:53 AM 28.0 °F 21.7 °F 15.1 °F 58% 30.24 in 10.0 mi South 5.8 mph - N/A   Overcast
9:53 AM 30.0 °F 26.5 °F 17.1 °F 59% 30.25 in 10.0 mi SSW 3.5 mph - N/A   Partly Cloudy
10:53 AM 32.0 °F 22.5 °F 19.9 °F 61% 30.26 in 10.0 mi WSW 12.7 mph 20.7 mph N/A   Mostly Cloudy
11:53 AM 35.1 °F 27.4 °F 19.0 °F 52% 30.22 in 10.0 mi SSW 10.4 mph - N/A   Partly Cloudy
12:53 PM 36.0 °F 26.7 °F 19.9 °F 52% 30.21 in 10.0 mi WSW 15.0 mph 23.0 mph N/A   Overcast
1:53 PM 36.0 °F 26.3 °F 19.9 °F 52% 30.20 in 10.0 mi WSW 16.1 mph - N/A   Overcast
2:53 PM 36.0 °F 28.5 °F 19.0 °F 50% 30.20 in 10.0 mi SW 10.4 mph - N/A   Overcast
3:53 PM 36.0 °F 28.0 °F 19.9 °F 52% 30.21 in 10.0 mi WSW 11.5 mph - N/A   Overcast
4:53 PM 33.1 °F 28.7 °F 19.9 °F 59% 30.23 in 10.0 mi SW 4.6 mph - N/A   Clear
5:53 PM 30.9 °F 26.2 °F 19.0 °F 61% 30.25 in 10.0 mi SW 4.6 mph - N/A   Partly Cloudy
6:53 PM 30.9 °F 27.5 °F 18.0 °F 59% 30.25 in 10.0 mi SSW 3.5 mph - N/A   Clear
7:53 PM 30.9 °F 27.5 °F 18.0 °F 59% 30.25 in 10.0 mi SW 3.5 mph - N/A   Mostly Cloudy
8:53 PM 30.0 °F 25.2 °F 18.0 °F 61% 30.25 in 10.0 mi SW 4.6 mph - N/A   Clear
9:53 PM 30.9 °F 25.2 °F 19.9 °F 64% 30.26 in 10.0 mi SW 5.8 mph - N/A   Overcast
10:53 PM 30.9 °F 24.3 °F 19.9 °F 64% 30.25 in 10.0 mi WSW 6.9 mph - N/A   Overcast
11:53 PM 30.0 °F 23.2 °F 19.0 °F 64% 30.24 in 10.0 mi SW 6.9 mph - N/A   Mostly Cloudy